Redmond, OR

6:44 PM PDT on April 30, 2017 (GMT -0700)
Roberts Field Airport

Weather History for KRDM - December, 2013

Change the Weather History Date:

Thursday, December 19, 2013

  Actual Average Record
Temperature  
Mean Temperature 24 °F 30 °F  
Max Temperature 32 °F 40 °F 58 °F (1959)
Min Temperature 16 °F 20 °F -8 °F (1984)
Degree Days  
Heating Degree Days 41 35  
Month to date heating degree days 777 651  
Since 1 July heating degree days 2563 2425  
Cooling Degree Days 0 0  
Month to date cooling degree days 0 0  
Year to date cooling degree days 350 222  
Moisture  
Dew Point 17 °F    
Average Humidity 65    
Maximum Humidity 84    
Minimum Humidity 46    
Precipitation  
Precipitation T in 0.04 in 0.50 in (1964)
Month to date precipitation 0.34 0.74  
Year to date precipitation 4.77 8.48  
Sea Level Pressure  
Sea Level Pressure 30.14 in    
Wind  
Wind Speed 5 mph (NNW)    
Max Wind Speed 16 mph    
Max Gust Speed 21 mph    
Visibility 10 miles    
Events Snow    
T = Trace of Precipitation, MM = Missing Value Source: NWS Daily Summary

Daily Weather History Graph

Daily Weather History Graph

Search for Another Location

Airport or City:

Trip Planner

Search our weather history database for the weather conditions in past years. The results will help you decide how hot, cold, wet, or windy it might be!

Date:

Astronomy

Dec. 19, 2013 Rise Set
Actual Time 7:36 AM PST 4:27 PM PST
Civil Twilight 7:02 AM PST 5:01 PM PST
Nautical Twilight 6:26 AM PST 5:37 PM PST
Astronomical Twilight 5:50 AM PST 6:13 PM PST
Moon 7:03 PM PST (12/19) 8:53 AM PST (12/19)
Length of Visible Light 9h 58m
Length of Day
8h 51m
Waning Gibbous, 95% of the Moon is Illuminated
Dec 19
Waning Gibbous
Dec 25
Last Quarter
Jan 1
New
Jan 7
First Quarter
Jan 15
Full

Hourly Weather History & Observations

Time (PST) Temp. Windchill Dew Point Humidity Pressure Visibility Wind Dir Wind Speed Gust Speed Precip Events Conditions
12:38 AM 30.0 °F 21.7 °F 25.0 °F 82% 29.97 in 10.0 mi North 9.2 mph - 0.00 in Snow Light Snow
12:49 AM 30.0 °F 21.1 °F 25.0 °F 82% 29.97 in 9.0 mi North 10.4 mph - 0.00 in Snow Light Snow
12:56 AM 30.0 °F 23.2 °F 24.1 °F 79% 30.01 in 9.0 mi North 6.9 mph - 0.00 in   Overcast
1:56 AM 28.0 °F 20.8 °F 21.9 °F 78% 30.01 in 10.0 mi NNW 6.9 mph - N/A   Scattered Clouds
2:05 AM 28.0 °F 19.3 °F 21.9 °F 78% 29.97 in 10.0 mi NW 9.2 mph - N/A   Mostly Cloudy
2:56 AM 27.0 °F 17.3 °F 19.9 °F 75% 30.06 in 10.0 mi NNW 10.4 mph - N/A   Overcast
3:03 AM 27.0 °F 16.7 °F 19.9 °F 75% 30.01 in 10.0 mi NNW 11.5 mph - N/A   Overcast
3:35 AM 27.0 °F 18.0 °F 19.9 °F 75% 30.01 in 10.0 mi NW 9.2 mph - N/A   Overcast
3:56 AM 27.0 °F 16.1 °F 19.9 °F 75% 30.08 in 10.0 mi NNW 12.7 mph - N/A   Overcast
4:24 AM 27.0 °F 15.2 °F 21.0 °F 78% 30.04 in 10.0 mi NNW 15.0 mph 20.7 mph N/A   Mostly Cloudy
4:56 AM 27.0 °F 15.6 °F 21.0 °F 78% 30.12 in 10.0 mi NNW 13.8 mph - N/A   Overcast
5:56 AM 27.0 °F 18.7 °F 19.0 °F 72% 30.14 in 10.0 mi NNW 8.1 mph - N/A   Overcast
6:56 AM 25.0 °F 17.1 °F 10.9 °F 55% 30.17 in 10.0 mi North 6.9 mph - N/A   Clear
7:56 AM 23.0 °F 14.7 °F 12.0 °F 63% 30.21 in 10.0 mi NW 6.9 mph - N/A   Clear
8:56 AM 25.0 °F - 10.9 °F 55% 30.24 in 10.0 mi Calm Calm - N/A   Clear
9:56 AM 28.9 °F - 10.9 °F 47% 30.25 in 10.0 mi Calm Calm - N/A   Clear
10:56 AM 28.9 °F - 12.9 °F 51% 30.25 in 10.0 mi Calm Calm - N/A   Clear
11:56 AM 30.0 °F 22.4 °F 12.9 °F 49% 30.24 in 10.0 mi NW 8.1 mph - N/A   Clear
12:56 PM 30.0 °F 26.5 °F 12.0 °F 47% 30.24 in 10.0 mi NW 3.5 mph - N/A   Clear
1:56 PM 30.0 °F - 12.0 °F 47% 30.19 in 10.0 mi Calm Calm - N/A   Clear
2:56 PM 30.9 °F 26.2 °F 12.9 °F 47% 30.18 in 10.0 mi NW 4.6 mph - N/A   Clear
3:56 PM 28.9 °F 21.9 °F 14.0 °F 54% 30.22 in 10.0 mi North 6.9 mph - N/A   Clear
4:56 PM 25.0 °F 20.7 °F 17.1 °F 72% 30.23 in 10.0 mi NNW 3.5 mph - N/A   Clear
5:56 PM 23.0 °F - 18.0 °F 81% 30.22 in 10.0 mi Calm Calm - N/A   Clear
6:56 PM 21.0 °F - 18.0 °F 88% 30.22 in 10.0 mi Calm Calm - N/A   Clear
7:56 PM 19.0 °F 12.3 °F 15.1 °F 85% 30.23 in 10.0 mi South 4.6 mph - N/A   Clear
8:56 PM 17.1 °F 8.7 °F 12.9 °F 84% 30.21 in 10.0 mi SSE 5.8 mph - N/A   Clear
9:56 PM 17.1 °F 6.6 °F 12.0 °F 81% 30.20 in 10.0 mi SSE 8.1 mph - N/A   Clear
10:56 PM 17.1 °F 11.7 °F 10.9 °F 77% 30.21 in 10.0 mi ESE 3.5 mph - N/A   Clear
11:56 PM 17.1 °F - 12.0 °F 81% 30.18 in 10.0 mi Calm Calm - N/A   Partly Cloudy